Regional Weather Roundup
Issued by NWS Sioux Falls, SD

Home | Current Version | Previous Version | Graphics & Text | Print | Product List | Glossary On
Versions: 1 2 3 4 5 6 7 8 9 10 11 12 13 14 15 16 17 18 19 20 21 22 23 24 25 26 27 28 29 30 31 32 33 34 35 36 37 38 39 40 41 42 43 44 45 46 47 48 49 50
414
ASUS43 KFSD 220610
RWRFSD

WEATHER ROUNDUP FOR SE SOUTH DAKOTA/SW MINNESOTA/NW IOWA
NATIONAL WEATHER SERVICE SIOUX FALLS SD
100 AM CDT FRI MAY 22 2015

NOTE: "FAIR" INDICATES FEW OR NO CLOUDS BELOW 12,000 FEET WITH NO
SIGNIFICANT WEATHER AND OR OBSTRUCTIONS TO VISIBILITY.


SDZ038>040-050-052>070-220700-
SOUTHEAST SOUTH DAKOTA

CITY           SKY/WX    TMP DP  RH WIND       PRES   REMARKS
BROOKINGS      CLEAR     48  41  76 CALM      30.18R
CHAMBERLAIN    CLEAR     51  37  60 SW3       30.16S
6HR MIN TEMP:  48; 6HR MAX TEMP:  68;

HURON          CLEAR     53  42  66 NW3       30.15R
6HR MIN TEMP:  50; 6HR MAX TEMP:  75;

MADISON        FAIR      50  39  66 CALM      30.17R
MITCHELL       CLEAR     52  41  66 W5        30.16R
6HR MIN TEMP:  52; 6HR MAX TEMP:  73;

SIOUX FALLS    CLEAR     53  39  59 W6        30.15S
6HR MIN TEMP:  50; 6HR MAX TEMP:  72;

WINNER         FAIR      50  35  56 S9        30.18R
YANKTON        CLEAR     55  37  50 SW7       30.16R
$$

MNZ071-072-080-081-089-090-097-098-220700-
SOUTHWEST MINNESOTA

CITY           SKY/WX    TMP DP  RH WIND       PRES   REMARKS
FAIRMONT       CLEAR     52  30  43 NW6       30.13S
JACKSON        CLEAR     50  30  46 NW5       30.15S
LUVERNE        CLEAR     50  39  66 CALM      30.16R
MARSHALL       CLEAR     50  30  46 W5        30.15R
6HR MIN TEMP:  48; 6HR MAX TEMP:  72;

MONTEVIDEO     CLEAR     54  36  50 N3        30.15R
REDWOOD FALLS  CLEAR     54  36  50 NW7       30.13R
TRACY          CLEAR     55  32  42 W6        30.16R
WORTHINGTON    CLEAR     46  28  49 NW3       30.16R
$$

IAZ001>003-012>014-020>022-031-032-NEZ013-014-SDZ071-220700-
NORTHWEST IOWA

CITY           SKY/WX    TMP DP  RH WIND       PRES   REMARKS
CHEROKEE       CLEAR     46  43  86 CALM      30.15S
DENISON        CLEAR     55  41  58 CALM      30.16R
ESTHERVILLE    CLEAR     47  32  56 NW8       30.13S
LE MARS        CLEAR     50  43  76 CALM      30.17R
ORANGE CITY    CLEAR     52  39  62 W6        30.16S
SHELDON        CLEAR     50  39  66 CALM      30.14S
SIOUX CITY     CLEAR     52  37  56 NW5       30.17R
6HR MIN TEMP:  51; 6HR MAX TEMP:  75;

SPENCER          N/A     49  38  65 NW3       30.15R
6HR MIN TEMP:  47; 6HR MAX TEMP:  73;

STORM LAKE     CLEAR     54  41  62 W10       30.16S
$$

ABBREVIATIONS USED IN REMARKS
   TC - TEMPERATURE IN CELSIUS
  WCI - WIND CHILL INDEX
   HX - HEAT INDEX
  VSB - VISIBILITY




USA.gov is the U.S. government's official web portal to all federal, state and local government web resources and services.